Total_Precipitation_Accumulation
1.21 1.22 1.12 1.27 1.34 1.35 1.36 1.39 1.30 1.22 1.22 1.09 1.10 1.11 1.12 0.99 1.06 1.11 1.28 1.49 1.89 2.49 2.59 2.29 2.05 1.87 1.77 1.72 1.76 1.80 1.94 1.88 1.88 1.90 1.85 2.05 2.30 2.17 2.30 2.39 2.51 2.87 3.20
1.08 1.28 1.19 1.16 1.24 1.43 1.51 1.48 1.38 1.39 1.38 1.22 1.21 1.26 1.23 1.17 1.18 1.21 1.33 1.29 1.32 1.73 2.25 2.50 2.48 2.33 2.13 1.99 1.85 1.88 2.04 1.91 1.85 1.87 1.89 2.05 2.38 2.25 2.34 2.50 2.48 2.73 3.08
1.00 1.21 1.16 1.07 1.07 1.22 1.41 1.58 1.62 1.59 1.39 1.30 1.28 1.31 1.24 1.22 1.22 1.39 1.41 1.42 1.28 1.25 1.60 1.91 2.20 2.33 2.36 2.30 2.07 1.95 2.05 1.98 1.96 1.92 1.91 1.97 2.31 2.42 2.46 2.55 2.48 2.69 2.87
0.77 1.00 1.11 1.04 1.03 1.19 1.42 1.65 1.80 1.83 1.64 1.57 1.60 1.51 1.33 1.30 1.26 1.38 1.42 1.47 1.53 1.28 1.19 1.23 1.46 1.73 1.94 2.10 2.17 2.11 2.08 2.00 1.90 1.87 1.76 1.76 2.05 2.26 2.40 2.49 2.48 2.65 2.78
0.67 0.90 1.14 1.19 1.20 1.33 1.43 1.45 1.68 1.79 1.85 1.76 1.63 1.51 1.42 1.43 1.41 1.35 1.50 1.50 1.49 1.39 1.21 0.96 0.89 1.01 1.33 1.70 1.95 2.04 2.14 2.18 2.03 1.89 1.64 1.56 1.74 2.05 2.41 2.23 2.29 2.45 2.68
0.83 1.04 1.28 1.36 1.46 1.51 1.60 1.78 2.05 2.07 1.95 1.94 1.77 1.55 1.43 1.44 1.46 1.54 1.56 1.54 1.55 1.38 1.21 1.04 0.91 0.71 0.87 1.20 1.59 1.87 2.02 2.23 2.18 2.13 1.86 1.60 1.60 1.82 2.19 2.18 2.22 2.38 2.60
0.99 1.19 1.41 1.67 1.80 1.68 1.73 1.96 2.24 2.39 2.20 2.03 2.10 1.98 1.81 1.62 1.57 1.54 1.54 1.59 1.61 1.53 1.37 1.29 1.18 1.04 0.92 0.89 1.10 1.45 1.72 1.99 2.12 2.23 2.20 1.93 1.74 1.77 1.89 1.85 1.94 2.27 2.64
1.09 1.11 1.35 1.55 1.65 1.74 1.79 1.90 2.17 2.52 2.36 2.09 2.27 2.64 2.44 2.22 1.78 1.46 1.57 1.63 1.68 1.61 1.49 1.32 1.27 1.20 1.15 1.17 0.84 0.88 1.21 1.59 2.03 2.24 2.24 2.15 2.02 1.80 1.83 1.76 1.73 1.92 2.27
1.39 1.36 1.40 1.51 1.60 1.74 1.86 1.91 1.96 2.26 2.38 2.22 2.20 2.73 2.71 2.52 2.34 1.85 1.50 1.55 1.67 1.74 1.71 1.58 1.41 1.33 1.25 1.37 1.14 0.77 0.86 1.11 1.61 2.06 2.30 2.34 2.19 1.92 1.87 1.82 1.77 1.89 2.05
1.69 1.68 1.71 1.78 1.71 1.67 1.73 1.76 1.77 1.96 2.32 2.41 2.26 2.11 2.07 2.17 2.51 2.26 1.74 1.57 1.58 1.61 1.72 1.59 1.60 1.60 1.57 1.51 1.36 0.99 0.74 0.83 1.24 1.86 2.33 2.40 2.25 2.09 1.97 1.93 1.81 1.80 1.94
2.27 2.20 2.16 2.02 1.81 1.74 1.78 1.81 1.82 1.90 2.03 2.21 2.18 2.03 1.98 1.94 1.84 2.05 2.02 1.79 1.58 1.48 1.58 1.62 1.64 1.64 1.71 1.65 1.54 1.22 0.87 0.69 0.84 1.40 2.02 2.23 2.25 2.14 2.09 2.02 1.87 1.76 1.66
2.27 2.20 2.07 1.84 1.65 1.59 1.66 1.81 1.85 1.92 1.92 1.98 1.95 1.85 1.85 1.80 1.73 1.90 1.88 1.88 1.82 1.47 1.36 1.43 1.49 1.53 1.52 1.57 1.43 1.52 1.20 0.87 0.74 0.95 1.38 1.77 2.07 2.24 2.22 2.30 2.15 1.96 1.76
1.67 1.69 1.69 1.67 1.56 1.47 1.58 1.81 1.91 1.95 1.92 1.89 1.84 1.77 1.80 1.66 1.70 1.96 2.03 1.94 1.83 1.52 1.34 1.24 1.29 1.35 1.29 1.41 1.48 1.62 1.38 1.11 0.87 0.82 0.95 1.20 1.47 1.84 2.20 2.46 2.63 2.51 2.36
1.44 1.46 1.53 1.57 1.53 1.50 1.53 1.66 1.80 1.90 1.89 1.80 1.75 1.86 1.85 1.65 1.71 1.75 1.82 2.02 1.90 1.66 1.45 1.19 1.12 1.10 1.15 1.20 1.36 1.56 1.14 1.08 0.94 0.82 0.76 0.83 1.06 1.28 1.63 2.06 2.47 2.59 2.56
1.11 1.22 1.35 1.43 1.38 1.38 1.41 1.54 1.69 1.72 1.79 1.85 1.85 1.86 1.87 1.78 1.78 1.78 1.87 1.95 1.99 1.80 1.55 1.29 1.12 1.00 1.07 1.07 1.29 1.20 1.03 1.07 1.00 0.89 0.82 0.77 0.87 1.04 1.28 1.41 1.54 1.69 1.85
1.00 1.06 1.04 1.05 1.02 1.07 1.08 1.19 1.38 1.46 1.51 1.61 1.62 1.66 1.72 1.70 1.76 1.76 1.81 1.88 1.87 1.81 1.65 1.39 1.20 1.12 1.16 1.04 1.17 1.07 1.12 1.28 1.09 0.94 0.86 0.81 0.83 0.91 0.99 1.03 1.05 1.03 1.06
0.71 0.77 0.72 0.70 0.76 0.82 0.78 0.87 0.97 1.07 1.18 1.28 1.28 1.34 1.41 1.41 1.53 1.57 1.66 1.74 1.79 1.74 1.51 1.32 1.20 1.20 1.22 1.20 1.17 1.08 1.14 1.18 1.08 0.97 0.84 0.76 0.79 0.85 0.90 0.94 0.94 0.89 0.84
0.45 0.50 0.50 0.48 0.56 0.69 0.71 0.76 0.80 0.81 0.92 1.03 1.09 1.14 1.13 1.14 1.26 1.35 1.42 1.51 1.64 1.68 1.56 1.38 1.27 1.21 1.10 1.11 1.26 1.31 1.29 1.21 1.21 1.26 1.14 0.97 0.90 0.87 0.84 0.90 0.96 0.91 0.85
0.38 0.39 0.40 0.42 0.45 0.54 0.67 0.71 0.71 0.69 0.70 0.74 0.79 0.83 0.88 0.94 1.10 1.17 1.21 1.31 1.46 1.50 1.58 1.46 1.38 1.31 1.15 1.08 1.25 1.27 1.33 1.50 1.41 1.48 1.60 1.39 1.14 0.99 0.87 0.91 0.97 0.95 0.88
0.35 0.33 0.30 0.32 0.40 0.51 0.61 0.68 0.69 0.66 0.64 0.67 0.70 0.70 0.70 0.73 0.83 0.96 1.05 1.23 1.39 1.51 1.56 1.49 1.47 1.43 1.35 1.24 1.31 1.41 1.47 1.57 1.60 1.43 1.45 1.42 1.37 1.25 1.05 0.94 0.99 1.03 1.01
0.31 0.26 0.23 0.25 0.33 0.40 0.46 0.60 0.64 0.64 0.66 0.64 0.66 0.68 0.68 0.66 0.67 0.71 0.70 0.89 1.10 1.33 1.43 1.48 1.49 1.52 1.47 1.42 1.36 1.49 1.56 1.68 1.78 1.75 1.62 1.44 1.41 1.26 1.13 1.05 1.02 1.05 1.10
0.29 0.26 0.22 0.23 0.24 0.24 0.38 0.45 0.52 0.60 0.67 0.72 0.71 0.72 0.69 0.65 0.68 0.66 0.64 0.65 0.77 0.92 1.11 1.22 1.30 1.35 1.42 1.52 1.63 1.63 1.60 1.66 1.72 1.73 1.60 1.61 1.55 1.44 1.27 1.09 1.09 1.10 1.12
0.23 0.23 0.22 0.22 0.24 0.24 0.25 0.28 0.41 0.54 0.67 0.71 0.71 0.81 0.85 0.76 0.76 0.77 0.78 0.70 0.64 0.65 0.80 1.02 1.14 1.19 1.26 1.34 1.58 1.62 1.62 1.66 1.58 1.61 1.46 1.51 1.47 1.34 1.25 1.21 1.21 1.14 1.14
0.21 0.22 0.27 0.27 0.24 0.20 0.20 0.19 0.28 0.44 0.58 0.62 0.62 0.74 0.98 1.00 0.88 0.83 0.85 0.92 0.83 0.68 0.68 0.74 0.92 1.06 1.10 1.25 1.57 1.79 1.74 1.53 1.48 1.54 1.44 1.44 1.38 1.25 1.17 1.15 1.21 1.12 1.10
0.23 0.22 0.23 0.25 0.24 0.21 0.20 0.20 0.24 0.36 0.47 0.51 0.53 0.65 0.80 0.93 0.87 0.83 0.81 0.87 0.91 0.80 0.74 0.76 0.73 0.81 0.94 1.12 1.37 1.62 1.74 1.69 1.53 1.48 1.36 1.29 1.29 1.27 1.28 1.24 1.19 1.17 1.09
0.26 0.25 0.24 0.22 0.20 0.20 0.20 0.21 0.22 0.28 0.34 0.33 0.40 0.56 0.74 0.72 0.66 0.71 0.79 0.89 0.99 0.83 0.74 0.82 0.81 0.83 0.86 1.04 1.38 1.58 1.71 1.71 1.58 1.53 1.42 1.33 1.32 1.32 1.49 1.44 1.26 1.20 1.14